When you browse on this site, cookies collect data to enhance your experience and personalize the content and advertising you see.
Visit our Privacy Policy to learn more. By continuing to use the site, you agree to this use of cookies and data.
EN

Hourly Weather Rzadkowo

Today, 4 August, Tuesday

Time Temperature Precipitation Wind Pressure Humidity
00:00 +18°C° 0.2 mm 1 mps 743 mmHg 96%
01:00 +16°C° 0 mm 0 mps 743 mmHg 97%
02:00 +16°C° 0.1 mm 0 mps 743 mmHg 97%
03:00 +16°C° 0.1 mm 0 mps 743 mmHg 97%
04:00 +18°C° 0.1 mm 1 mps 743 mmHg 97%
05:00 +18°C° 0 mm 1 mps 743 mmHg 95%
06:00 +19°C° 0 mm 1 mps 743 mmHg 94%
07:00 +20°C° 0 mm 1 mps 743 mmHg 92%
08:00 +20°C° 0 mm 1 mps 743 mmHg 92%
09:00 +20°C° 0 mm 1 mps 743 mmHg 92%
10:00 +20°C° 0 mm 1 mps 743 mmHg 91%
11:00 +19°C° 1.4 mm 2 mps 743 mmHg 93%
12:00 +19°C° 1.4 mm 2 mps 743 mmHg 94%
13:00 +19°C° 1.4 mm 2 mps 743 mmHg 96%
14:00 +18°C° 3.9 mm 3 mps 743 mmHg 96%
15:00 +18°C° 3.9 mm 3 mps 743 mmHg 97%
16:00 +18°C° 3.9 mm 4 mps 743 mmHg 97%
17:00 +18°C° 0.5 mm 4 mps 744 mmHg 97%
18:00 +17°C° 0.5 mm 4 mps 744 mmHg 97%
19:00 +17°C° 0.5 mm 4 mps 744 mmHg 97%
20:00 +17°C° 0.1 mm 4 mps 745 mmHg 96%
21:00 +17°C° 0.1 mm 4 mps 745 mmHg 96%
22:00 +15°C° 0.1 mm 4 mps 746 mmHg 96%
23:00 +16°C° 0 mm 3 mps 747 mmHg 96%

Tomorrow, 5 August, Wednesday

Time Temperature Precipitation Wind Pressure Humidity
00:00 +14°C° 0 mm 3 mps 747 mmHg 96%
01:00 +13°C° 0 mm 3 mps 747 mmHg 96%
02:00 +13°C° 0 mm 3 mps 748 mmHg 97%
03:00 +12°C° 0 mm 3 mps 748 mmHg 97%
04:00 +12°C° 0 mm 3 mps 748 mmHg 97%
05:00 +13°C° 0 mm 3 mps 749 mmHg 93%
06:00 +14°C° 0 mm 3 mps 749 mmHg 89%
07:00 +16°C° 0 mm 3 mps 750 mmHg 85%
08:00 +17°C° 0 mm 3 mps 750 mmHg 78%
09:00 +19°C° 0 mm 3 mps 751 mmHg 71%
10:00 +20°C° 0 mm 3 mps 751 mmHg 64%
11:00 +21°C° 0 mm 3 mps 751 mmHg 60%
12:00 +23°C° 0 mm 2 mps 751 mmHg 55%
13:00 +24°C° 0 mm 2 mps 752 mmHg 51%
14:00 +24°C° 0 mm 2 mps 752 mmHg 52%
15:00 +24°C° 0 mm 2 mps 752 mmHg 53%
16:00 +24°C° 0 mm 2 mps 752 mmHg 54%
17:00 +21°C° 0 mm 2 mps 752 mmHg 61%
18:00 +20°C° 0 mm 2 mps 752 mmHg 67%
19:00 +18°C° 0 mm 2 mps 752 mmHg 74%
20:00 +17°C° 0 mm 2 mps 753 mmHg 78%
21:00 +16°C° 0 mm 2 mps 753 mmHg 81%
22:00 +16°C° 0 mm 3 mps 753 mmHg 85%
23:00 +14°C° 0 mm 3 mps 753 mmHg 86%

Day after tomorrow, 6 August, Thursday

Time Temperature Precipitation Wind Pressure Humidity
00:00 +14°C° 0 mm 3 mps 753 mmHg 87%
01:00 +13°C° 0 mm 3 mps 754 mmHg 88%
02:00 +13°C° 0 mm 3 mps 754 mmHg 88%
03:00 +13°C° 0 mm 3 mps 754 mmHg 88%
04:00 +13°C° 0 mm 2 mps 754 mmHg 88%
05:00 +15°C° 0 mm 2 mps 754 mmHg 84%
06:00 +16°C° 0 mm 3 mps 755 mmHg 81%
07:00 +18°C° 0 mm 3 mps 755 mmHg 77%
08:00 +20°C° 0 mm 3 mps 755 mmHg 72%
09:00 +21°C° 0 mm 3 mps 755 mmHg 67%
10:00 +24°C° 0 mm 3 mps 756 mmHg 61%
11:00 +25°C° 0 mm 3 mps 756 mmHg 59%
12:00 +25°C° 0 mm 3 mps 755 mmHg 58%
13:00 +26°C° 0 mm 4 mps 755 mmHg 56%
14:00 +26°C° 0 mm 3 mps 755 mmHg 56%
15:00 +26°C° 0 mm 3 mps 755 mmHg 57%
16:00 +26°C° 0 mm 3 mps 755 mmHg 58%
17:00 +24°C° 0 mm 3 mps 755 mmHg 64%
18:00 +22°C° 0 mm 3 mps 755 mmHg 69%
19:00 +20°C° 0 mm 3 mps 755 mmHg 75%
20:00 +19°C° 0 mm 3 mps 755 mmHg 76%
21:00 +18°C° 0 mm 3 mps 756 mmHg 78%
22:00 +17°C° 0 mm 3 mps 756 mmHg 79%
23:00 +17°C° 0 mm 3 mps 756 mmHg 79%

7 August, Friday

Time Temperature Precipitation Wind Pressure Humidity
00:00 +17°C° 0 mm 3 mps 756 mmHg 78%
01:00 +16°C° 0 mm 3 mps 756 mmHg 78%
02:00 +16°C° 0 mm 3 mps 756 mmHg 78%
03:00 +16°C° 0 mm 3 mps 756 mmHg 78%
04:00 +16°C° 0 mm 3 mps 757 mmHg 78%
05:00 +17°C° 0 mm 3 mps 757 mmHg 76%
06:00 +18°C° 0 mm 3 mps 757 mmHg 73%
07:00 +19°C° 0 mm 3 mps 757 mmHg 71%
08:00 +21°C° 0 mm 3 mps 757 mmHg 68%
09:00 +24°C° 0 mm 3 mps 757 mmHg 65%
10:00 +25°C° 0 mm 3 mps 757 mmHg 62%
11:00 +26°C° 0 mm 3 mps 757 mmHg 60%
12:00 +27°C° 0 mm 3 mps 756 mmHg 58%
13:00 +28°C° 0 mm 3 mps 756 mmHg 56%
14:00 +27°C° 0 mm 3 mps 756 mmHg 57%
15:00 +27°C° 0 mm 3 mps 756 mmHg 58%
16:00 +27°C° 0 mm 3 mps 756 mmHg 59%
17:00 +26°C° 0 mm 3 mps 755 mmHg 64%
18:00 +24°C° 0 mm 3 mps 755 mmHg 69%
19:00 +21°C° 0 mm 2 mps 755 mmHg 74%
20:00 +20°C° 0 mm 2 mps 755 mmHg 75%
21:00 +20°C° 0 mm 2 mps 756 mmHg 76%
22:00 +19°C° 0 mm 2 mps 756 mmHg 78%
23:00 +18°C° 0 mm 2 mps 756 mmHg 79%

8 August, Saturday

Time Temperature Precipitation Wind Pressure Humidity
00:00 +18°C° 0 mm 2 mps 756 mmHg 80%
01:00 +17°C° 0 mm 2 mps 756 mmHg 81%
02:00 +17°C° 0 mm 2 mps 755 mmHg 84%
03:00 +17°C° 0 mm 2 mps 755 mmHg 86%
04:00 +16°C° 0 mm 2 mps 755 mmHg 89%
05:00 +18°C° 0 mm 2 mps 755 mmHg 84%
06:00 +19°C° 0 mm 2 mps 755 mmHg 80%
07:00 +21°C° 0 mm 2 mps 755 mmHg 76%
08:00 +23°C° 0 mm 2 mps 755 mmHg 70%
09:00 +25°C° 0 mm 2 mps 755 mmHg 65%
10:00 +26°C° 0 mm 2 mps 755 mmHg 60%
11:00 +27°C° 0 mm 2 mps 754 mmHg 57%
12:00 +27°C° 0 mm 2 mps 754 mmHg 55%
13:00 +28°C° 0 mm 2 mps 754 mmHg 52%
14:00 +28°C° 0 mm 1 mps 753 mmHg 53%
15:00 +28°C° 0 mm 1 mps 753 mmHg 53%
16:00 +28°C° 0 mm 1 mps 753 mmHg 54%
17:00 +26°C° 0 mm 1 mps 752 mmHg 60%
18:00 +25°C° 0 mm 2 mps 752 mmHg 66%
19:00 +23°C° 0 mm 2 mps 752 mmHg 73%
20:00 +21°C° 0 mm 2 mps 752 mmHg 76%
21:00 +20°C° 0 mm 2 mps 752 mmHg 80%
22:00 +19°C° 0 mm 2 mps 752 mmHg 84%
23:00 +19°C° 0 mm 2 mps 752 mmHg 86%

9 August, Sunday

Time Temperature Precipitation Wind Pressure Humidity
00:00 +18°C° 0 mm 2 mps 752 mmHg 88%
01:00 +18°C° 0 mm 2 mps 752 mmHg 90%
02:00 +17°C° 0 mm 2 mps 752 mmHg 91%
03:00 +17°C° 0 mm 2 mps 751 mmHg 92%
04:00 +17°C° 0 mm 2 mps 751 mmHg 93%
05:00 +18°C° 0 mm 2 mps 751 mmHg 89%
06:00 +20°C° 0 mm 2 mps 751 mmHg 84%
07:00 +21°C° 0 mm 2 mps 751 mmHg 80%
08:00 +23°C° 0 mm 2 mps 751 mmHg 74%
09:00 +25°C° 0 mm 2 mps 751 mmHg 68%
10:00 +26°C° 0 mm 2 mps 751 mmHg 62%
11:00 +27°C° 0 mm 3 mps 751 mmHg 60%
12:00 +27°C° 0 mm 3 mps 750 mmHg 57%
13:00 +28°C° 0 mm 3 mps 750 mmHg 55%
14:00 +28°C° 0.1 mm 3 mps 750 mmHg 57%
15:00 +27°C° 0.1 mm 3 mps 750 mmHg 59%
16:00 +27°C° 0.1 mm 3 mps 749 mmHg 61%
17:00 +26°C° 0.2 mm 3 mps 749 mmHg 68%
18:00 +24°C° 0.2 mm 2 mps 749 mmHg 76%
19:00 +21°C° 0.2 mm 2 mps 749 mmHg 83%
20:00 +20°C° 0.1 mm 2 mps 749 mmHg 85%
21:00 +20°C° 0.1 mm 2 mps 750 mmHg 88%
22:00 +19°C° 0.1 mm 2 mps 750 mmHg 90%
23:00 +19°C° 0 mm 2 mps 750 mmHg 91%
Show more